Skip Page Navigation
NASA JPL Caltech
NASA Logo - Jet Propulsion Laboratory + View the NASA Portal
+ Center for Near-Earth Object Studies
JPL Home Earth Solar System Stars & Galaxies Technology
JPL Solar System Dynamics
BODIES ORBITS EPHEMERIDES TOOLS PHYSICAL DATA DISCOVERY FAQ SITE MAP
JPL Small-Body Database Browser
Search: [ help ]  
308762 (2006 KY101)
Classification: Main-belt Asteroid          SPK-ID: 2308762
Ephemeris | Orbit Diagram | Orbital Elements | Mission Design | Physical Parameters | Discovery Circumstances | Close-Approach Data ]

[ show orbit diagram ]
Orbital Elements at Epoch 2459000.5 (2020-May-31.0) TDB
Reference: JPL 18 (heliocentric ecliptic J2000)
 Element Value Uncertainty (1-sigma)   Units 
e .3129516698221736 6.2312e-08  
a 2.595282149257694 2.5539e-08 au
q 1.783084266987819 1.7092e-07 au
i 13.13572936789495 5.1695e-06 deg
node 106.9534837770313 2.8401e-05 deg
peri 241.5221757455952 3.1513e-05 deg
M 60.11069532977458 8.2143e-06 deg
tp 2458745.509179030003
(2019-Sep-19.00917903)
3.6168e-05 TDB
period 1527.127494459865
4.18
2.2541e-05
6.171e-08
d
yr
n .2357367026040806 3.4796e-09 deg/d
Q 3.40748003152757 3.3531e-08 au
  Orbit Determination Parameters
   # obs. used (total)      402  
   data-arc span      5825 days (15.95 yr)  
   first obs. used      2003-12-17  
   last obs. used      2019-11-28  
   planetary ephem.      DE431  
   SB-pert. ephem.      SB431-N16  
   condition code      0  
   norm. resid. RMS      .5061  
   source      ORB  
   producer      Otto Matic  
   solution date      2019-Dec-14 18:56:54  

Additional Information
 Earth MOID = .816724 au 
 Jupiter MOID = 2.13551 au 
 T_jup = 3.311 
[ show covariance matrix ]

Ephemeris | Orbit Diagram | Orbital Elements | Mission Design | Physical Parameters | Discovery Circumstances | Close-Approach Data ]

Physical Parameter Table
Parameter Symbol Value Units Sigma Reference Notes
absolute magnitude H 16.2   n/a MPO503310  
diameter diameter 2.656 km 0.333 urn:nasa:pds:neowise_diameters_albedos::2.0[mainbelt] (http://adsabs.harvard.edu/abs/2011ApJ...741...68M)  
geometric albedo albedo 0.083   0.050 urn:nasa:pds:neowise_diameters_albedos::2.0[mainbelt] (http://adsabs.harvard.edu/abs/2011ApJ...741...68M)  

308762 (2006 KY101)          Discovered 2006-May-27 by Spacewatch at Kitt Peak
Reference: 20111210/Numbers.arcLast Updated: 2011-12-12

[ show close-approach data ]
Ephemeris | Orbit Diagram | Orbital Elements | Mission Design | Physical Parameters | Discovery Circumstances | Close-Approach Data ]
ABOUT SSD CREDITS/AWARDS PRIVACY/COPYRIGHT GLOSSARY LINKS
FirstGov 2020-Sep-23 14:18 UT
(server date/time)  
NASA Home Page
Site Manager:   Ryan S. Park
Webmaster  Alan B. Chamberlin